| time (UTC) | temp F | wind direction | speed knots | gust knots | rain 1hr in | rain 24hr in | rain mn in | humidity % | barometer mb |
| 20260507180504 | 59 | 202 | 0.0 | 10.4 | 0.00 | 0.00 | 0.00 | 75 | 1012.6 |
| 20260507180004 | 60 | 205 | 0.0 | 14.8 | 0.00 | 0.00 | 0.00 | 74 | 1012.6 |
| 20260507175505 | 60 | 205 | 0.0 | 14.8 | 0.00 | 0.00 | 0.00 | 73 | 1012.5 |
| 20260507175004 | 60 | 204 | 9.6 | 10.4 | 0.00 | 0.00 | 0.00 | 73 | 1012.6 |
| 20260507174504 | 61 | 204 | 0.0 | 6.1 | 0.00 | 0.00 | 0.00 | 72 | 1012.5 |
| 20260507174003 | 61 | 204 | 4.3 | 7.8 | 0.00 | 0.00 | 0.00 | 71 | 1012.3 |
| 20260507173004 | 62 | 203 | 0.0 | 5.2 | 0.00 | 0.00 | 0.00 | 69 | 1012.2 |
| 20260507172004 | 62 | 203 | 0.0 | 4.3 | 0.00 | 0.00 | 0.00 | 68 | 1012.0 |
| 20260507171506 | 63 | 203 | 0.0 | 4.3 | 0.00 | 0.00 | 0.00 | 67 | 1011.9 |
| 20260507171005 | 63 | 203 | 0.0 | 3.5 | 0.00 | 0.00 | 0.00 | 66 | 1011.9 |
| 20260507170504 | 64 | 0 | 0.0 | 0.0 | 0.00 | 0.00 | 0.00 | 65 | 1012.0 |
| 20260507170004 | 64 | 0 | 0.0 | 0.0 | 0.00 | 0.00 | 0.00 | 63 | 1012.0 |
| 20260507165504 | 65 | 0 | 0.0 | 0.0 | 0.00 | 0.00 | 0.00 | 62 | 1011.9 |
| 20260507165005 | 65 | 0 | 0.0 | 0.0 | 0.00 | 0.00 | 0.00 | 61 | 1011.8 |
| 20260507164503 | 65 | 216 | 0.0 | 5.2 | 0.00 | 0.00 | 0.00 | 60 | 1011.8 |
| 20260507163504 | 67 | 0 | 0.0 | 0.0 | 0.00 | 0.00 | 0.00 | 55 | 1012.1 |
| 20260507163005 | 67 | 0 | 0.0 | 0.0 | 0.00 | 0.00 | 0.00 | 51 | 1011.9 |
| 20260507162004 | 68 | 203 | 0.0 | 7.8 | 0.00 | 0.00 | 0.00 | 48 | 1011.7 |
| 20260507161504 | 68 | 205 | 0.0 | 7.8 | 0.00 | 0.00 | 0.00 | 48 | 1011.6 |
| 20260507161003 | 69 | 204 | 0.0 | 5.2 | 0.00 | 0.00 | 0.00 | 48 | 1011.3 |
| 20260507160504 | 69 | 203 | 0.0 | 5.2 | 0.00 | 0.00 | 0.00 | 48 | 1011.3 |
| 20260507160004 | 69 | 203 | 0.0 | 4.3 | 0.00 | 0.00 | 0.00 | 48 | 1011.2 |
| 20260507155505 | 70 | 205 | 0.0 | 5.2 | 0.00 | 0.00 | 0.00 | 47 | 1011.2 |
| 20260507155004 | 70 | 204 | 2.6 | 6.1 | 0.00 | 0.00 | 0.00 | 47 | 1011.0 |
| 20260507154003 | 70 | 203 | 1.7 | 5.2 | 0.00 | 0.00 | 0.00 | 46 | 1010.9 |
| 20260507153505 | 71 | 0 | 0.0 | 0.0 | 0.00 | 0.00 | 0.00 | 46 | 1010.9 |
| 20260507153003 | 71 | 0 | 0.0 | 0.0 | 0.00 | 0.00 | 0.00 | 46 | 1010.9 |
| 20260507152503 | 71 | 203 | 0.0 | 2.6 | 0.00 | 0.00 | 0.00 | 46 | 1010.8 |
| 20260507152004 | 71 | 203 | 0.0 | 2.6 | 0.00 | 0.00 | 0.00 | 45 | 1010.8 |
| 20260507151505 | 71 | 0 | 0.0 | 0.0 | 0.00 | 0.00 | 0.00 | 45 | 1010.7 |
| 20260507151003 | 71 | 203 | 0.0 | 2.6 | 0.00 | 0.00 | 0.00 | 45 | 1010.6 |
| 20260507150503 | 71 | 203 | 0.0 | 2.6 | 0.00 | 0.00 | 0.00 | 44 | 1010.7 |
| 20260507150004 | 72 | 203 | 0.0 | 3.5 | 0.00 | 0.00 | 0.00 | 44 | 1010.8 |
| 20260507145504 | 72 | 203 | 2.6 | 3.5 | 0.00 | 0.00 | 0.00 | 45 | 1010.7 |
| 20260507145004 | 72 | 181 | 0.0 | 3.5 | 0.00 | 0.00 | 0.00 | 45 | 1010.6 |
| 20260507144503 | 72 | 195 | 0.0 | 5.2 | 0.00 | 0.00 | 0.00 | 44 | 1010.6 |
| 20260507144003 | 72 | 203 | 0.0 | 6.1 | 0.00 | 0.00 | 0.00 | 45 | 1010.8 |
| 20260507143505 | 72 | 203 | 0.0 | 6.1 | 0.00 | 0.00 | 0.00 | 44 | 1010.8 |
| 20260507143003 | 72 | 201 | 0.0 | 7.8 | 0.00 | 0.00 | 0.00 | 44 | 1010.9 |
| 20260507142504 | 72 | 201 | 0.0 | 7.8 | 0.00 | 0.00 | 0.00 | 44 | 1010.9 |
| 20260507141505 | 72 | 0 | 0.0 | 0.0 | 0.00 | 0.00 | 0.00 | 45 | 1010.9 |
| 20260507141003 | 72 | 203 | 0.0 | 5.2 | 0.00 | 0.00 | 0.00 | 45 | 1010.9 |
| 20260507140004 | 72 | 0 | 0.0 | 0.0 | 0.00 | 0.00 | 0.00 | 45 | 1010.9 |
| 20260507135504 | 72 | 0 | 0.0 | 0.0 | 0.00 | 0.00 | 0.00 | 45 | 1010.9 |
| 20260507134504 | 72 | 203 | 0.0 | 2.6 | 0.00 | 0.00 | 0.00 | 46 | 1011.0 |
| 20260507134003 | 71 | 203 | 0.0 | 2.6 | 0.00 | 0.00 | 0.00 | 46 | 1011.2 |
| 20260507133504 | 71 | 203 | 0.0 | 2.6 | 0.00 | 0.00 | 0.00 | 46 | 1011.0 |
| 20260507133005 | 71 | 203 | 0.0 | 1.7 | 0.00 | 0.00 | 0.00 | 45 | 1011.1 |
| 20260507132504 | 71 | 0 | 0.0 | 0.0 | 0.00 | 0.00 | 0.00 | 45 | 1011.0 |
| 20260507131503 | 71 | 0 | 0.0 | 0.0 | 0.00 | 0.00 | 0.00 | 45 | 1011.2 |
| 20260507131005 | 71 | 0 | 0.0 | 0.0 | 0.00 | 0.00 | 0.00 | 45 | 1011.2 |
| 20260507130504 | 71 | 0 | 0.0 | 0.0 | 0.00 | 0.00 | 0.00 | 44 | 1011.0 |
| 20260507130004 | 71 | 225 | 0.0 | 4.3 | 0.00 | 0.00 | 0.00 | 44 | 1011.0 |
| 20260507125503 | 71 | 225 | 0.0 | 4.3 | 0.00 | 0.00 | 0.00 | 44 | 1011.4 |
| 20260507125005 | 71 | 225 | 0.0 | 2.6 | 0.00 | 0.00 | 0.00 | 44 | 1011.3 |
| 20260507124003 | 71 | 0 | 0.0 | 0.0 | 0.00 | 0.00 | 0.00 | 44 | 1011.4 |
| 20260507123504 | 71 | 90 | 0.0 | 2.6 | 0.00 | 0.00 | 0.00 | 45 | 1011.4 |
| 20260507123004 | 71 | 90 | 0.0 | 2.6 | 0.00 | 0.00 | 0.00 | 44 | 1011.4 |
| 20260507121503 | 71 | 226 | 0.0 | 5.2 | 0.00 | 0.00 | 0.00 | 45 | 1011.6 |
| 20260507121005 | 71 | 248 | 0.0 | 6.1 | 0.00 | 0.00 | 0.00 | 46 | 1011.5 |
| 20260507120004 | 70 | 203 | 0.0 | 5.2 | 0.00 | 0.00 | 0.00 | 47 | 1011.6 |
| 20260507115504 | 70 | 203 | 0.0 | 3.5 | 0.00 | 0.00 | 0.00 | 47 | 1011.6 |
| 20260507115004 | 69 | 0 | 0.0 | 0.0 | 0.00 | 0.00 | 0.00 | 47 | 1011.6 |
| 20260507114504 | 69 | 292 | 0.0 | 0.9 | 0.00 | 0.00 | 0.00 | 47 | 1011.8 |
| 20260507114003 | 69 | 305 | 0.0 | 2.6 | 0.00 | 0.00 | 0.00 | 47 | 1011.6 |
| 20260507113504 | 69 | 320 | 0.0 | 2.6 | 0.00 | 0.00 | 0.00 | 48 | 1011.5 |
| 20260507113004 | 69 | 270 | 0.0 | 4.3 | 0.00 | 0.00 | 0.00 | 48 | 1011.6 |
| 20260507112504 | 69 | 220 | 0.0 | 5.2 | 0.00 | 0.00 | 0.00 | 49 | 1011.7 |
| 20260507112003 | 69 | 203 | 0.0 | 5.2 | 0.00 | 0.00 | 0.00 | 50 | 1011.7 |
| 20260507111504 | 68 | 228 | 5.2 | 7.0 | 0.00 | 0.00 | 0.00 | 50 | 1011.8 |
| 20260507111003 | 68 | 222 | 0.0 | 7.0 | 0.00 | 0.00 | 0.00 | 50 | 1011.9 |
| 20260507110504 | 68 | 213 | 1.7 | 5.2 | 0.00 | 0.00 | 0.00 | 50 | 1011.9 |
| 20260507110003 | 67 | 0 | 0.0 | 0.0 | 0.00 | 0.00 | 0.00 | 50 | 1011.9 |
| 20260507105504 | 67 | 247 | 0.0 | 3.5 | 0.00 | 0.00 | 0.00 | 50 | 1012.0 |
| 20260507105004 | 67 | 222 | 0.0 | 5.2 | 0.00 | 0.00 | 0.00 | 50 | 1012.1 |
| 20260507104505 | 67 | 208 | 0.0 | 5.2 | 0.00 | 0.00 | 0.00 | 51 | 1012.2 |
| 20260507104003 | 67 | 0 | 0.0 | 0.0 | 0.00 | 0.00 | 0.00 | 50 | 1012.3 |
| 20260507103504 | 67 | 0 | 0.0 | 0.0 | 0.00 | 0.00 | 0.00 | 50 | 1012.4 |
| 20260507103003 | 67 | 341 | 0.0 | 6.1 | 0.00 | 0.00 | 0.00 | 50 | 1012.3 |
| 20260507102505 | 67 | 265 | 0.0 | 6.1 | 0.00 | 0.00 | 0.00 | 51 | 1012.3 |
| 20260507102003 | 67 | 214 | 0.0 | 5.2 | 0.00 | 0.00 | 0.00 | 52 | 1012.4 |
| 20260507101503 | 67 | 257 | 0.0 | 2.6 | 0.00 | 0.00 | 0.00 | 52 | 1012.4 |
| 20260507101004 | 67 | 220 | 0.0 | 6.1 | 0.00 | 0.00 | 0.00 | 53 | 1012.4 |
| 20260507100504 | 67 | 222 | 0.0 | 6.1 | 0.00 | 0.00 | 0.00 | 53 | 1012.3 |
| 20260507100004 | 66 | 225 | 0.0 | 2.6 | 0.00 | 0.00 | 0.00 | 53 | 1012.3 |
| 20260507095004 | 66 | 1 | 0.0 | 0.9 | 0.00 | 0.00 | 0.00 | 53 | 1012.3 |
| 20260507094505 | 66 | 1 | 0.0 | 0.9 | 0.00 | 0.00 | 0.00 | 54 | 1012.2 |
| 20260507094004 | 65 | 0 | 0.0 | 0.0 | 0.00 | 0.00 | 0.00 | 54 | 1012.3 |
| 20260507093504 | 65 | 203 | 0.0 | 5.2 | 0.00 | 0.00 | 0.00 | 55 | 1012.4 |
| 20260507093003 | 65 | 203 | 0.0 | 5.2 | 0.00 | 0.00 | 0.00 | 55 | 1012.4 |
| 20260507092505 | 65 | 0 | 0.0 | 0.0 | 0.00 | 0.00 | 0.00 | 55 | 1012.5 |
| 20260507092003 | 64 | 337 | 0.0 | 2.6 | 0.00 | 0.00 | 0.00 | 55 | 1012.3 |
| 20260507091504 | 64 | 337 | 0.0 | 2.6 | 0.00 | 0.00 | 0.00 | 55 | 1012.2 |
| 20260507091004 | 64 | 225 | 0.0 | 4.3 | 0.00 | 0.00 | 0.00 | 55 | 1012.1 |
| 20260507090004 | 64 | 314 | 0.0 | 4.3 | 0.00 | 0.00 | 0.00 | 55 | 1012.2 |
| 20260507085503 | 64 | 317 | 1.7 | 4.3 | 0.00 | 0.00 | 0.00 | 55 | 1012.0 |
| 20260507084505 | 63 | 0 | 0.0 | 0.0 | 0.00 | 0.00 | 0.00 | 55 | 1011.8 |
| 20260507084004 | 63 | 0 | 0.0 | 0.0 | 0.00 | 0.00 | 0.00 | 55 | 1011.7 |
| 20260507083503 | 63 | 202 | 0.0 | 6.1 | 0.00 | 0.00 | 0.00 | 55 | 1011.7 |
| 20260507083005 | 63 | 222 | 0.0 | 6.1 | 0.00 | 0.00 | 0.00 | 55 | 1011.6 |
| 20260507082503 | 63 | 274 | 0.0 | 4.3 | 0.00 | 0.00 | 0.00 | 56 | 1011.5 |
| 20260507082004 | 63 | 266 | 0.0 | 4.3 | 0.00 | 0.00 | 0.00 | 56 | 1011.5 |
| 20260507081504 | 63 | 247 | 0.0 | 4.3 | 0.00 | 0.00 | 0.00 | 56 | 1011.5 |
| 20260507081004 | 63 | 294 | 0.0 | 2.6 | 0.00 | 0.00 | 0.00 | 58 | 991.5 |
| 20260507080004 | 62 | 261 | 0.0 | 5.2 | 0.00 | 0.00 | 0.00 | 57 | 1011.7 |
| 20260507075005 | 62 | 0 | 0.0 | 0.0 | 0.00 | 0.00 | 0.00 | 58 | 1011.3 |
| 20260507074503 | 62 | 0 | 0.0 | 0.0 | 0.00 | 0.00 | 0.00 | 58 | 1011.4 |
| 20260507074003 | 62 | 6 | 0.0 | 5.2 | 0.00 | 0.00 | 0.00 | 58 | 1011.3 |
| 20260507073504 | 62 | 6 | 0.0 | 5.2 | 0.00 | 0.00 | 0.00 | 58 | 1011.3 |
| 20260507073005 | 62 | 346 | 0.0 | 5.2 | 0.00 | 0.00 | 0.00 | 59 | 1011.3 |
| 20260507072504 | 62 | 296 | 0.0 | 5.2 | 0.00 | 0.00 | 0.00 | 59 | 1011.3 |
| 20260507071504 | 61 | 216 | 3.5 | 5.2 | 0.00 | 0.00 | 0.00 | 60 | 1011.4 |
| 20260507071005 | 61 | 276 | 0.0 | 4.3 | 0.00 | 0.00 | 0.00 | 60 | 1011.3 |
| 20260507070503 | 61 | 276 | 0.0 | 4.3 | 0.00 | 0.00 | 0.00 | 60 | 1011.2 |
| 20260507070006 | 61 | 309 | 0.0 | 6.1 | 0.00 | 0.00 | 0.00 | 60 | 1011.3 |
| 20260507065504 | 61 | 310 | 0.0 | 6.1 | 0.00 | 0.00 | 0.00 | 60 | 1011.2 |
| 20260507065004 | 61 | 314 | 0.0 | 3.5 | 0.00 | 0.00 | 0.00 | 60 | 1011.2 |
| 20260507064503 | 61 | 337 | 0.0 | 3.5 | 0.00 | 0.00 | 0.00 | 60 | 1011.2 |
| 20260507064003 | 61 | 337 | 0.0 | 3.5 | 0.00 | 0.00 | 0.00 | 61 | 1011.1 |
| 20260507063504 | 61 | 0 | 0.0 | 0.0 | 0.00 | 0.00 | 0.00 | 61 | 1011.2 |
| 20260507063004 | 61 | 322 | 0.0 | 5.2 | 0.00 | 0.00 | 0.00 | 61 | 1011.2 |
| 20260507062503 | 61 | 323 | 0.0 | 6.1 | 0.00 | 0.00 | 0.00 | 60 | 1011.1 |
| 20260507062004 | 61 | 314 | 6.1 | 6.1 | 0.00 | 0.00 | 0.00 | 61 | 1011.0 |
| 20260507061503 | 61 | 203 | 0.0 | 5.2 | 0.00 | 0.00 | 0.00 | 61 | 1011.0 |
| 20260507061004 | 61 | 219 | 0.0 | 5.2 | 0.00 | 0.00 | 0.00 | 61 | 1010.9 |
| 20260507060507 | 61 | 240 | 0.0 | 5.2 | 0.00 | 0.00 | 0.00 | 61 | 1010.8 |
| 20260507060007 | 61 | 275 | 0.0 | 5.2 | 0.00 | 0.00 | 0.00 | 61 | 1010.8 |
| 20260507055507 | 61 | 310 | 0.0 | 5.2 | 0.00 | 0.00 | 0.00 | 61 | 1010.7 |
| 20260507055007 | 61 | 320 | 2.6 | 5.2 | 0.00 | 0.00 | 0.00 | 62 | 1010.6 |
| 20260507054508 | 60 | 0 | 0.0 | 0.0 | 0.00 | 0.00 | 0.00 | 62 | 1010.6 |
| 20260507054007 | 60 | 0 | 0.0 | 0.0 | 0.00 | 0.00 | 0.00 | 62 | 1010.6 |
| 20260507053506 | 60 | 0 | 0.0 | 0.0 | 0.00 | 0.00 | 0.00 | 62 | 1010.5 |
| 20260507053007 | 60 | 247 | 0.0 | 2.6 | 0.00 | 0.00 | 0.00 | 61 | 1010.4 |
| 20260507052509 | 60 | 247 | 0.0 | 4.3 | 0.00 | 0.00 | 0.00 | 61 | 1010.3 |
| 20260507052007 | 60 | 220 | 0.0 | 6.1 | 0.00 | 0.00 | 0.00 | 61 | 1010.3 |
| 20260507051506 | 60 | 207 | 0.0 | 6.1 | 0.00 | 0.00 | 0.00 | 61 | 1010.2 |
| 20260507051007 | 60 | 1 | 0.0 | 2.6 | 0.00 | 0.00 | 0.00 | 61 | 1010.2 |
| 20260507050508 | 60 | 304 | 0.0 | 4.3 | 0.00 | 0.00 | 0.00 | 61 | 1010.1 |
| 20260507050007 | 60 | 306 | 0.0 | 4.3 | 0.00 | 0.00 | 0.00 | 61 | 1009.9 |
| 20260507045507 | 60 | 278 | 0.0 | 3.5 | 0.00 | 0.00 | 0.00 | 61 | 1009.9 |
| 20260507045007 | 60 | 247 | 0.0 | 3.5 | 0.00 | 0.00 | 0.00 | 61 | 1009.6 |
| 20260507044506 | 60 | 283 | 0.0 | 4.3 | 0.00 | 0.00 | 0.00 | 61 | 1009.5 |
| 20260507044008 | 60 | 262 | 0.0 | 4.3 | 0.00 | 0.00 | 0.00 | 61 | 1009.5 |
| 20260507042507 | 60 | 250 | 0.0 | 4.3 | 0.00 | 0.00 | 0.00 | 61 | 1009.2 |
| 20260507042008 | 60 | 256 | 0.0 | 5.2 | 0.00 | 0.00 | 0.00 | 61 | 1009.2 |
| 20260507041507 | 60 | 274 | 2.6 | 5.2 | 0.00 | 0.00 | 0.00 | 61 | 1009.1 |
| 20260507041007 | 60 | 282 | 0.0 | 5.2 | 0.00 | 0.00 | 0.00 | 61 | 1009.2 |
| 20260507040507 | 60 | 278 | 1.7 | 6.1 | 0.00 | 0.00 | 0.00 | 61 | 1009.1 |
| 20260507040007 | 60 | 286 | 2.6 | 8.7 | 0.00 | 0.00 | 0.00 | 60 | 1009.0 |
| 20260507035506 | 60 | 289 | 0.0 | 10.4 | 0.00 | 0.00 | 0.00 | 60 | 1009.0 |
| 20260507035008 | 60 | 286 | 1.7 | 10.4 | 0.00 | 0.00 | 0.00 | 60 | 1008.9 |
| 20260507034507 | 60 | 285 | 0.0 | 7.8 | 0.00 | 0.00 | 0.00 | 60 | 1008.8 |
| 20260507034007 | 60 | 272 | 0.0 | 5.2 | 0.00 | 0.00 | 0.00 | 60 | 1008.7 |
| 20260507033506 | 60 | 266 | 0.0 | 5.2 | 0.00 | 0.00 | 0.00 | 61 | 1008.7 |
| 20260507032507 | 60 | 261 | 0.0 | 6.1 | 0.00 | 0.00 | 0.00 | 61 | 1008.6 |
| 20260507032006 | 60 | 270 | 0.0 | 7.0 | 0.00 | 0.00 | 0.00 | 61 | 1008.5 |
| 20260507031507 | 60 | 270 | 0.0 | 7.0 | 0.00 | 0.00 | 0.00 | 61 | 1008.6 |
| 20260507031007 | 60 | 278 | 0.0 | 5.2 | 0.00 | 0.00 | 0.00 | 61 | 1008.6 |
| 20260507030508 | 60 | 279 | 0.0 | 5.2 | 0.00 | 0.00 | 0.00 | 61 | 1008.4 |
| 20260507030007 | 60 | 277 | 0.0 | 6.1 | 0.00 | 0.00 | 0.00 | 61 | 1008.2 |
| 20260507025507 | 61 | 242 | 0.0 | 13.9 | 0.00 | 0.00 | 0.00 | 62 | 1008.3 |
| 20260507025007 | 61 | 232 | 0.0 | 13.9 | 0.00 | 0.00 | 0.00 | 62 | 1008.2 |
| 20260507024507 | 61 | 230 | 0.0 | 5.2 | 0.00 | 0.00 | 0.00 | 62 | 1008.1 |
| 20260507024007 | 61 | 206 | 0.0 | 7.0 | 0.00 | 0.00 | 0.00 | 62 | 1008.2 |
| 20260507023507 | 61 | 231 | 0.0 | 7.0 | 0.00 | 0.00 | 0.00 | 63 | 1008.3 |
| 20260507023007 | 61 | 234 | 0.0 | 7.0 | 0.00 | 0.00 | 0.00 | 63 | 1008.3 |
| 20260507022507 | 61 | 215 | 0.0 | 7.0 | 0.00 | 0.00 | 0.00 | 63 | 1008.1 |
| 20260507022008 | 61 | 206 | 0.0 | 7.0 | 0.00 | 0.00 | 0.00 | 63 | 1008.2 |
| 20260507021506 | 61 | 283 | 0.0 | 5.2 | 0.00 | 0.00 | 0.00 | 63 | 1008.3 |
| 20260507020507 | 61 | 248 | 0.0 | 7.8 | 0.00 | 0.00 | 0.00 | 63 | 1008.2 |
| 20260507020007 | 61 | 229 | 0.0 | 7.8 | 0.00 | 0.00 | 0.00 | 64 | 1008.1 |
| 20260507015508 | 61 | 234 | 0.0 | 4.3 | 0.00 | 0.00 | 0.00 | 63 | 1008.2 |
| 20260507015007 | 61 | 228 | 0.0 | 5.2 | 0.00 | 0.00 | 0.00 | 63 | 1008.1 |
| 20260507014007 | 62 | 260 | 3.5 | 4.3 | 0.00 | 0.00 | 0.00 | 63 | 1008.1 |
| 20260507013506 | 62 | 262 | 0.0 | 4.3 | 0.00 | 0.00 | 0.00 | 63 | 1008.1 |
| 20260507012506 | 62 | 259 | 2.6 | 5.2 | 0.00 | 0.00 | 0.00 | 63 | 1007.9 |
| 20260507012007 | 62 | 245 | 0.0 | 5.2 | 0.00 | 0.00 | 0.00 | 63 | 1007.7 |
| 20260507011507 | 62 | 247 | 0.0 | 4.3 | 0.00 | 0.00 | 0.00 | 63 | 1007.6 |
| 20260507010007 | 62 | 219 | 6.1 | 6.1 | 0.00 | 0.00 | 0.00 | 63 | 1007.7 |
| 20260507005507 | 62 | 221 | 0.0 | 6.1 | 0.00 | 0.00 | 0.00 | 63 | 1007.5 |
| 20260507004506 | 62 | 206 | 0.0 | 7.0 | 0.00 | 0.00 | 0.00 | 63 | 1007.7 |
| 20260507004008 | 62 | 221 | 0.0 | 7.0 | 0.00 | 0.00 | 0.00 | 63 | 1007.6 |
| 20260507003507 | 62 | 221 | 0.0 | 7.0 | 0.00 | 0.00 | 0.00 | 63 | 1007.6 |
| 20260507003006 | 62 | 298 | 0.0 | 3.5 | 0.00 | 0.00 | 0.00 | 63 | 1007.6 |
| 20260507002507 | 63 | 268 | 0.0 | 5.2 | 0.00 | 0.00 | 0.00 | 63 | 1007.5 |
| 20260507002008 | 63 | 271 | 0.0 | 9.6 | 0.00 | 0.00 | 0.00 | 63 | 1007.5 |
| 20260507001507 | 63 | 279 | 0.0 | 9.6 | 0.00 | 0.00 | 0.00 | 63 | 1007.3 |
| 20260507001006 | 63 | 215 | 0.0 | 7.0 | 0.00 | 0.00 | 0.00 | 63 | 1007.2 |
| 20260506235507 | 63 | 208 | 0.0 | 3.5 | 0.00 | 0.00 | 0.00 | 64 | 1007.0 |
| 20260506235007 | 63 | 236 | 0.0 | 8.7 | 0.00 | 0.00 | 0.00 | 64 | 1007.0 |
| 20260506234508 | 63 | 280 | 0.0 | 8.7 | 0.00 | 0.00 | 0.00 | 65 | 1007.0 |
| 20260506234007 | 63 | 251 | 0.0 | 12.2 | 0.00 | 0.00 | 0.00 | 65 | 1007.2 |
| 20260506233507 | 63 | 209 | 0.0 | 12.2 | 0.00 | 0.00 | 0.00 | 64 | 1007.1 |
| 20260506233007 | 63 | 213 | 0.0 | 7.0 | 0.00 | 0.00 | 0.00 | 64 | 1006.9 |
| 20260506232507 | 63 | 233 | 0.0 | 7.0 | 0.00 | 0.00 | 0.00 | 64 | 1006.9 |
| 20260506232009 | 63 | 225 | 0.0 | 9.6 | 0.00 | 0.00 | 0.00 | 64 | 1007.0 |
| 20260506231507 | 64 | 215 | 0.0 | 9.6 | 0.00 | 0.00 | 0.00 | 63 | 1006.9 |
| 20260506231007 | 64 | 214 | 0.0 | 8.7 | 0.00 | 0.00 | 0.00 | 63 | 1006.9 |
| 20260506230507 | 64 | 203 | 0.0 | 6.1 | 0.00 | 0.00 | 0.00 | 62 | 1006.6 |
| 20260506225507 | 64 | 214 | 0.0 | 5.2 | 0.00 | 0.00 | 0.00 | 62 | 1006.5 |
| 20260506225007 | 64 | 208 | 0.0 | 5.2 | 0.00 | 0.00 | 0.00 | 61 | 1006.5 |
| 20260506224507 | 64 | 203 | 0.0 | 3.5 | 0.00 | 0.00 | 0.00 | 61 | 1006.6 |
| 20260506224008 | 64 | 217 | 0.0 | 2.6 | 0.00 | 0.00 | 0.00 | 62 | 1006.3 |
| 20260506223507 | 64 | 209 | 0.0 | 8.7 | 0.00 | 0.00 | 0.00 | 62 | 1006.3 |
| 20260506222506 | 64 | 202 | 0.0 | 5.2 | 0.00 | 0.00 | 0.00 | 62 | 1006.0 |
| 20260506222007 | 64 | 203 | 0.0 | 5.2 | 0.00 | 0.00 | 0.00 | 62 | 1005.9 |
| 20260506221507 | 64 | 203 | 0.0 | 5.2 | 0.00 | 0.00 | 0.00 | 61 | 1005.6 |
| 20260506221009 | 64 | 200 | 0.0 | 4.3 | 0.00 | 0.00 | 0.00 | 61 | 1005.6 |
| 20260506220507 | 64 | 207 | 0.0 | 5.2 | 0.00 | 0.00 | 0.00 | 61 | 1005.6 |
| 20260506220007 | 64 | 209 | 0.0 | 5.2 | 0.00 | 0.00 | 0.00 | 61 | 1005.4 |
| 20260506215506 | 65 | 203 | 0.0 | 3.5 | 0.00 | 0.00 | 0.00 | 61 | 1005.3 |
| 20260506214506 | 65 | 203 | 0.0 | 7.0 | 0.00 | 0.00 | 0.00 | 61 | 1005.0 |
| 20260506214007 | 65 | 199 | 7.0 | 7.0 | 0.00 | 0.00 | 0.00 | 60 | 1004.9 |
| 20260506213507 | 65 | 199 | 0.0 | 7.8 | 0.00 | 0.00 | 0.00 | 60 | 1004.8 |
| 20260506213007 | 65 | 203 | 0.0 | 7.8 | 0.00 | 0.00 | 0.00 | 60 | 1005.0 |
| 20260506212507 | 65 | 202 | 0.0 | 5.2 | 0.00 | 0.00 | 0.00 | 60 | 1004.8 |
| 20260506212007 | 65 | 193 | 0.0 | 7.8 | 0.00 | 0.00 | 0.00 | 60 | 1004.6 |
| 20260506211507 | 65 | 194 | 2.6 | 7.8 | 0.00 | 0.00 | 0.00 | 60 | 1004.8 |
| 20260506210506 | 65 | 192 | 0.0 | 7.0 | 0.00 | 0.00 | 0.00 | 60 | 1004.5 |
| 20260506205006 | 66 | 196 | 2.6 | 7.8 | 0.00 | 0.00 | 0.00 | 59 | 1004.3 |
| 20260506204507 | 66 | 203 | 0.0 | 7.8 | 0.00 | 0.00 | 0.00 | 59 | 1004.3 |
| 20260506204007 | 66 | 205 | 0.0 | 6.1 | 0.00 | 0.00 | 0.00 | 59 | 1004.2 |
| 20260506203006 | 66 | 204 | 5.2 | 6.1 | 0.00 | 0.00 | 0.00 | 58 | 1004.2 |
| 20260506202507 | 67 | 201 | 3.5 | 11.3 | 0.00 | 0.00 | 0.00 | 58 | 1004.2 |
| 20260506202007 | 67 | 199 | 6.1 | 11.3 | 0.00 | 0.00 | 0.00 | 58 | 1004.0 |
| 20260506201007 | 67 | 205 | 2.6 | 10.4 | 0.00 | 0.00 | 0.00 | 57 | 1004.2 |
| 20260506200507 | 67 | 205 | 0.0 | 10.4 | 0.00 | 0.00 | 0.00 | 57 | 1004.2 |
| 20260506200007 | 67 | 201 | 0.0 | 7.8 | 0.00 | 0.00 | 0.00 | 57 | 1004.2 |
| 20260506195007 | 67 | 204 | 0.0 | 7.0 | 0.00 | 0.00 | 0.00 | 56 | 1003.9 |
| 20260506194507 | 68 | 206 | 0.0 | 7.0 | 0.00 | 0.00 | 0.00 | 56 | 1003.7 |
| 20260506194006 | 68 | 203 | 1.7 | 7.8 | 0.00 | 0.00 | 0.00 | 56 | 1003.7 |
| 20260506193508 | 68 | 194 | 0.9 | 7.8 | 0.00 | 0.00 | 0.00 | 55 | 1003.7 |
| 20260506193007 | 68 | 191 | 0.0 | 6.1 | 0.00 | 0.00 | 0.00 | 55 | 1003.6 |
| 20260506192506 | 68 | 198 | 5.2 | 7.0 | 0.00 | 0.00 | 0.00 | 55 | 1003.6 |
| 20260506192007 | 68 | 186 | 0.0 | 10.4 | 0.00 | 0.00 | 0.00 | 54 | 1003.6 |
| 20260506191509 | 68 | 183 | 0.0 | 10.4 | 0.00 | 0.00 | 0.00 | 54 | 1003.6 |
| 20260506191007 | 68 | 195 | 0.0 | 7.8 | 0.00 | 0.00 | 0.00 | 54 | 1003.5 |
| 20260506190506 | 69 | 191 | 0.0 | 5.2 | 0.00 | 0.00 | 0.00 | 53 | 1003.5 |
| 20260506190006 | 69 | 192 | 0.0 | 6.1 | 0.00 | 0.00 | 0.00 | 53 | 1003.3 |
| 20260506185508 | 69 | 198 | 0.0 | 6.1 | 0.00 | 0.00 | 0.00 | 52 | 1003.3 |
| 20260506185007 | 69 | 209 | 0.0 | 4.3 | 0.00 | 0.00 | 0.00 | 53 | 1003.4 |
| 20260506184507 | 69 | 197 | 0.0 | 10.4 | 0.00 | 0.00 | 0.00 | 52 | 1003.3 |
| 20260506184006 | 70 | 198 | 0.0 | 10.4 | 0.00 | 0.00 | 0.00 | 52 | 1003.1 |
| 20260506183507 | 70 | 205 | 4.3 | 6.1 | 0.00 | 0.00 | 0.00 | 52 | 1002.8 |
| 20260506183007 | 70 | 206 | 0.0 | 6.1 | 0.00 | 0.00 | 0.00 | 51 | 1002.7 |
| 20260506182007 | 71 | 206 | 0.0 | 7.8 | 0.00 | 0.00 | 0.00 | 51 | 1002.8 |
| 20260506181508 | 71 | 195 | 0.0 | 9.6 | 0.00 | 0.00 | 0.00 | 51 | 1002.7 |
| 20260506181006 | 71 | 194 | 0.0 | 9.6 | 0.00 | 0.00 | 0.00 | 50 | 1002.6 |